K4AXV-13 Weather Reports


time (UTC)temp
F
wind
direction
speed
knots
gust
knots
rain 1hr
in
rain 24hr
in
rain mn
in
humidity
%
barometer
mb
20260504032651 54 194 0.0 0.0 0.00 0.70 0.00
20260504032149 54 194 0.0 0.0 0.00 0.70 0.00
20260504031651 54 194 0.0 0.0 0.00 0.70 0.00
20260504031149 54 194 0.0 0.0 0.00 0.70 0.00
20260504030650 55 194 0.0 0.0 0.00 0.70 0.00
20260504030148 55 194 0.0 0.0 0.00 0.70 0.00
20260504025650 55 194 0.0 0.0 0.00 0.70 0.00
20260504025148 55 194 0.0 0.0 0.00 0.70 0.00
20260504024649 55 194 0.0 0.0 0.00 0.70 0.00
20260504024147 55 194 0.0 0.0 0.00 0.70 0.00
20260504023649 55 194 0.0 0.0 0.00 0.70 0.00
20260504023147 55 194 0.0 0.0 0.00 0.70 0.00
20260504022648 55 194 0.0 0.0 0.00 0.70 0.00
20260504022146 55 194 0.0 0.0 0.00 0.70 0.00
20260504021648 56 194 0.0 0.0 0.00 0.70 0.00
20260504020647 56 194 0.0 0.0 0.00 0.70 0.00
20260504020145 57 194 0.0 0.0 0.00 0.70 0.00
20260504015645 56 194 0.0 0.0 0.00 0.70 0.00
20260504015144 57 194 0.0 0.0 0.00 0.70 0.00
20260504014645 57 194 0.0 0.0 0.00 0.70 0.00
20260504014143 57 194 0.0 0.0 0.00 0.70 0.00
20260504013643 57 194 0.0 0.0 0.00 0.70 0.00
20260504013141 58 194 0.0 0.0 0.00 0.70 0.00
20260504012642 57 194 0.0 0.0 0.00 0.70 0.00
20260504012141 58 194 0.0 0.0 0.00 0.70 0.00
20260504011640 58 194 0.0 0.0 0.00 0.70 0.00
20260504010637 58 273 0.9 0.0 0.00 0.70 0.00
20260504003133 60 342 0.0 0.0 0.00 0.70 0.00
20260504002132 61 342 0.0 0.0 0.00 0.70 0.00
20260504001633 61 342 0.0 0.0 0.00 0.70 0.00
20260504001132 61 342 0.0 0.0 0.00 0.70 0.00
20260504000632 62 342 0.0 0.0 0.00 0.70 0.00
20260504000130 62 342 0.0 0.0 0.00 0.70 0.00
20260503235631 62 342 0.0 0.0 0.00 0.70 0.00
20260503235130 63 342 0.0 0.0 0.00 0.70 0.00
20260503234631 63 335 0.0 0.0 0.00 0.70 0.00
20260503234129 63 335 0.0 0.0 0.00 0.70 0.00
20260503233631 64 204 0.0 0.0 0.00 0.70 0.00
20260503233129 63 204 0.9 0.0 0.00 0.70 0.00
20260503232630 64 235 1.7 0.9 0.00 0.70 0.00
20260503232129 64 263 1.7 0.0 0.00 0.70 0.00
20260503231629 64 7 0.0 0.0 0.00 0.70 0.00
20260503231127 64 236 0.0 0.0 0.00 0.70 0.00
20260503230127 64 311 0.0 0.0 0.00 0.70 0.00
20260503225627 65 32 2.6 0.0 0.00 0.70 0.00
20260503224627 65 21 1.7 1.7 0.00 0.70 0.00
20260503224123 65 46 1.7 0.9 0.00 0.70 0.00
20260503222622 65 203 1.7 0.9 0.00 0.70 0.00
20260503222116 65 135 0.0 4.3 0.00 0.70 0.00
20260503221617 65 158 0.0 2.6 0.00 0.70 0.00
20260503215109 67 333 1.7 4.3 0.00 0.70 0.00
20260503214103 68 149 3.5 0.9 0.00 0.70 0.00
20260503213605 68 23 0.0 1.7 0.00 0.70 0.00
20260503213103 69 325 3.5 1.7 0.00 0.70 0.00
20260503211102 69 250 5.2 3.5 0.00 0.70 0.00
20260503210101 69 72 0.0 0.0 0.00 0.70 0.00
20260503205602 69 242 0.9 0.0 0.00 0.70 0.00
20260503205101 69 283 0.0 0.0 0.00 0.70 0.00
20260503204602 70 297 0.9 1.7 0.00 0.70 0.00
20260503203059 70 259 0.0 0.0 0.00 0.70 0.00
20260503202059 70 309 0.0 0.9 0.00 0.70 0.00
20260503200058 70 325 0.0 0.0 0.00 0.70 0.00
20260503195559 71 293 0.0 3.5 0.00 0.70 0.00
20260503193558 71 357 2.6 2.6 0.00 0.70 0.00
20260503184054 70 193 1.7 0.9 0.00 0.70 0.00
20260503090458 48 120 0.0 0.0 0.00 0.70 0.00
20260503081454 49 120 0.0 0.0 0.00 0.70 0.00
20260503080950 49 120 0.0 0.0 0.00 0.70 0.00
20260503080451 49 120 0.0 0.0 0.00 0.70 0.00
20260503072444 50 120 0.0 0.0 0.00 0.70 0.00
20260503071943 50 120 0.0 0.0 0.00 0.70 0.00
20260503071444 51 120 0.0 0.0 0.00 0.70 0.00
20260503070940 50 120 0.0 0.0 0.00 0.70 0.00
20260503070442 51 120 0.0 0.0 0.00 0.70 0.00
20260503054418 52 120 0.0 0.0 0.00 0.70 0.00
20260503053417 53 120 0.0 0.0 0.00 0.70 0.00
20260503052913 52 120 0.0 0.0 0.00 0.70 0.00
20260503051913 53 120 0.0 0.0 0.00 0.70 0.00
20260503051414 53 120 0.0 0.0 0.00 0.70 0.00
20260503050913 52 120 0.0 0.0 0.00 0.70 0.00
20260503050414 53 120 0.0 0.0 0.00 0.70 0.00
20260503044414 53 120 0.0 0.0 0.00 0.70 0.00
20260503043911 53 120 0.0 0.0 0.00 0.70 0.00
20260503043412 53 120 0.0 0.0 0.00 0.70 0.00
20260503042911 54 120 0.0 0.0 0.00 0.70 0.00
20260503041910 53 120 0.0 0.0 0.00 0.70 0.00
20260503041411 54 120 0.0 0.0 0.00 0.70 0.00
20260503040910 54 120 0.0 0.0 0.00 0.70 0.00
20260503035908 54 120 0.0 0.0 0.00 0.01 0.70
20260503035410 54 120 0.0 0.0 0.00 0.01 0.70
20260503034908 54 120 0.0 0.0 0.00 0.01 0.70
20260503034409 54 120 0.0 0.0 0.00 0.01 0.70
20260503033907 54 120 0.0 0.0 0.00 0.01 0.70
20260503033409 54 120 0.0 0.0 0.00 0.01 0.70